User: anonymous   Login
Location: ????????
(55.6189°N, 38.3031°E)
Time: 12:06:52
(UTC+00:00)
Language:

Cosmos 2237 Rocket - Orbit

View from above orbital plane
View from above orbital plane
View from above satellite
View from above satellite

Ground track
Ground track

The orbit data is extracted from the following two-line orbital elements,

1 22566U 93016B   20020.86917717 -.00000142 +00000-0 -49005-4 0  9991
2 22566 071.0051 237.6459 0008898 142.1500 218.0250 14.14960086385316
Epoch (UTC): 20 January 2020 20:51:36
Eccentricity: 0.0008898
inclination: 71.0051°
perigee height: 836 km
apogee height: 849 km
right ascension of ascending node: 237.6459°
argument of perigee: 142.1500°
revolutions per day: 14.14960086
mean anomaly at epoch: 218.0250°
orbit number at epoch: 38531

The dashed part of the orbit path shows where the satellite is in the earth's shadow,  

DLR